Tracking 18032 objects as of 27-March-2017
HD Live streaming from Space Station
objects crossing your sky now

SKYNET 1

Track SKYNET 1 now!
SKYNET 1 is classified as:


NORAD ID: 4250
Int'l Code: 1969-101A
Perigee: 35,699.6 km
Apogee: 35,889.0 km
Inclination: 7.5 °
Period: 1,436.1 minutes
Semi major axis: 42165 km
RCS: 1.2928 m2 (large)
Launch date: November 22, 1969
Source: United Kingdom (UK)
Launch site: AIR FORCE EASTERN TEST RANGE (AFETR)
Your satellite tracking list
Your tracking list is empty





NASA's NSSDC Master Catalog

Two Line Element Set (TLE):
1  4250U 69101A   17084.51321833 -.00000101 +00000-0 +00000-0 0  9997
2  4250 007.5368 306.9282 0022461 233.9821 080.1167 01.00269667100703
Source of the keplerian elements: AFSPC